Overview Statistics Trail Chart Weather Telemetry Raw packets
 

This is the latest recevied weather packets stored in our database for station/object N6GPM. If no packets are shown the sender has not sent any weather packets the latest 10 day(s).

<< 99 100 101 102 103 104 105 >>
Time Temp. Humidity Pressure Rain* Wind** Luminosity Snow
1787937765 33.89° C 36% 1018.5 hPa 0 mm - 691 W/m² -
1787937461 34.44° C 36% 1018.4 hPa 0 mm - 753 W/m² -
1787937157 34.44° C 35% 1018.3 hPa 0 mm - 731 W/m² -
1787936857 33.89° C 36% 1018.3 hPa 0 mm - 738 W/m² -
1787936551 33.89° C 37% 1018.3 hPa 0 mm - 409 W/m² -
1787936250 33.33° C 38% 1018.5 hPa 0 mm - 709 W/m² -
1787935947 32.78° C 39% 1018.2 hPa 0 mm - 687 W/m² -
1787935647 33.33° C 38% 1018.3 hPa 0 mm - 656 W/m² -
1787935351 33.33° C 38% 1018.4 hPa 0 mm - 646 W/m² -
1787935039 32.78° C 38% 1018.5 hPa 0 mm - 622 W/m² -
1787934734 32.22° C 40% 1018.3 hPa 0 mm - 604 W/m² -
1787934433 31.67° C 41% 1018.3 hPa 0 mm - 587 W/m² -
1787934128 31.67° C 42% 1018.2 hPa 0 mm - 513 W/m² -
1787933826 31.11° C 43% 1018.1 hPa 0 mm - 550 W/m² -
1787933521 31.11° C 43% 1018.1 hPa 0 mm - 506 W/m² -
1787933216 30.56° C 45% 1018.1 hPa 0 mm - 511 W/m² -
1787932911 30° C 47% 1018.1 hPa 0 mm - 475 W/m² -
1787932610 30° C 48% 1018.1 hPa 0 mm - 465 W/m² -
1787932309 30° C 47% 1018.1 hPa 0 mm - 433 W/m² -
1787932004 30° C 50% 1018.1 hPa 0 mm - 432 W/m² -
1787931703 29.44° C 51% 1018 hPa 0 mm - 385 W/m² -
1787931397 29.44° C 50% 1018 hPa 0 mm - 206 W/m² -
1787931093 29.44° C 51% 1018 hPa 0 mm - 84 W/m² -
1787930792 28.89° C 52% 1018 hPa 0 mm - 265 W/m² -
1787930492 28.33° C 53% 1017.8 hPa 0 mm - 301 W/m² -

* Rain latest hour (hover to see other rain measurements)
** Current wind speed in m/s (hover to see current wind gust speed)